Wind_Speed
5 4 4 4 3 3 3 3 4 5 5 6 6 7 7 8 8 9 9 9 8 8 7 7 6 6 6 6 6 6 6 6 6 6 6 6 6 6 6 6 7 7 7
7 6 6 5 4 4 4 4 4 4 5 5 5 6 6 7 7 7 7 7 7 7 6 6 6 5 5 5 5 5 5 5 5 5 6 6 6 6 6 6 6 7 7
8 8 7 7 6 5 5 5 5 5 5 5 5 5 5 6 6 6 6 5 5 5 5 5 5 4 4 4 4 4 4 4 4 5 5 5 5 5 6 6 6 7 7
9 8 8 8 7 6 5 5 5 5 5 5 5 5 5 5 4 4 4 4 4 4 4 4 3 3 4 3 3 3 3 4 4 4 4 4 4 4 5 5 5 6 6
10 9 9 9 9 8 7 6 6 5 5 5 5 5 5 5 4 4 3 3 3 3 3 3 3 3 3 3 3 3 3 3 3 3 3 3 3 3 4 4 5 6 6
11 11 10 10 10 9 8 8 7 6 6 6 5 5 5 5 5 4 4 3 3 2 2 2 2 2 2 3 3 3 3 3 3 3 3 3 3 4 4 4 4 5 6
12 13 12 11 11 10 10 9 8 8 7 7 6 6 6 6 6 5 5 4 4 3 3 3 3 3 3 3 4 4 4 4 4 4 4 3 4 4 4 4 5 5 6
13 13 12 12 12 12 11 10 9 9 9 8 7 7 7 7 7 6 6 6 5 5 5 5 5 4 4 4 4 5 5 5 5 5 5 5 5 5 5 5 5 6 6
14 14 14 14 13 13 12 11 10 10 10 9 9 8 8 8 8 8 8 8 7 7 7 7 7 6 6 6 6 6 6 6 6 6 6 6 6 6 6 6 7 7 7
15 15 16 16 15 14 12 12 12 11 10 10 10 9 9 9 9 9 9 9 9 8 9 9 9 9 8 8 8 8 8 8 7 7 8 8 8 8 7 8 8 8 8
16 16 16 16 16 14 13 13 13 12 12 11 10 10 10 9 10 9 10 10 10 10 10 11 11 11 11 10 10 10 10 10 10 9 9 9 9 9 9 9 10 10 9
16 17 17 16 15 15 15 14 14 13 13 12 11 10 10 9 9 9 10 10 10 10 10 11 12 13 12 12 12 12 12 12 12 12 12 12 11 11 11 11 11 11 11
18 18 18 17 16 16 16 15 14 14 13 12 11 9 9 9 9 9 10 10 10 10 10 11 11 12 13 13 13 13 13 14 14 13 13 13 13 13 13 13 13 13 13
19 18 18 18 17 17 16 15 14 14 13 12 11 10 9 9 9 9 9 9 9 10 10 10 11 11 12 12 12 13 13 15 15 15 15 15 15 15 15 15 15 14 14
20 20 19 18 16 16 15 15 14 14 14 12 11 11 9 8 8 8 8 8 8 9 9 9 9 10 11 11 12 12 13 15 15 15 15 16 16 16 17 17 17 17 16
20 20 19 18 17 15 15 15 15 14 13 12 11 10 9 8 7 7 7 8 8 7 8 8 9 10 10 11 12 12 14 14 15 16 17 16 17 18 19 19 19 19 19
20 20 19 19 18 16 15 15 13 13 13 12 11 10 9 7 7 7 7 8 8 8 8 8 9 9 10 10 11 12 12 13 14 16 17 18 18 19 19 19 20 20 21
20 19 19 20 19 16 15 14 13 12 12 11 10 9 8 8 7 7 8 8 8 9 10 9 9 9 9 10 11 12 12 13 13 15 16 18 18 19 20 21 21 21 22
18 18 19 18 17 15 15 13 12 10 10 10 8 8 8 7 7 7 8 7 8 8 8 9 9 9 10 11 11 12 13 13 14 15 16 17 18 19 20 21 22 23 23
16 16 17 16 15 14 13 12 11 10 10 9 8 7 6 6 6 6 6 6 6 6 6 7 8 9 10 10 11 11 13 14 15 16 17 18 19 20 21 22 23 24 25
14 14 16 15 14 13 13 11 10 9 9 8 7 5 5 4 4 4 5 5 5 6 6 7 7 8 9 10 11 12 13 14 15 15 17 18 20 21 22 23 24 25 26
14 14 14 14 14 14 12 10 9 8 7 7 6 5 4 3 2 2 3 3 3 4 5 6 8 8 9 10 11 12 13 14 15 16 16 18 19 21 22 23 24 25 26
12 12 12 13 13 12 10 9 8 8 7 6 6 5 4 3 2 2 1 1 2 3 5 6 7 8 9 10 11 12 13 14 15 15 16 17 18 20 21 23 24 26 27
12 12 13 12 12 10 9 9 9 8 7 6 5 4 3 3 2 1 1 1 2 4 5 6 7 8 9 10 11 12 14 15 15 16 17 18 18 19 21 22 24 26 27
11 12 11 11 11 10 9 8 8 7 7 6 5 4 3 2 2 2 2 2 3 5 6 7 8 9 10 11 12 13 14 15 16 17 18 19 20 21 21 23 25 26 28
10 11 10 10 11 11 10 9 8 8 7 6 5 4 3 2 1 1 2 3 4 6 7 8 9 10 11 12 13 14 16 16 17 18 19 21 22 23 23 25 26 26 28
Wind_Direction
216 207 201 202 205 203 193 173 152 139 129 122 116 111 106 102 99 98 96 95 95 95 97 100 102 104 107 107 105 100 97 98 96 91 86 88 94 102 111 116 120 119 122
223 215 206 210 214 213 208 194 170 155 144 136 129 122 113 107 104 102 102 100 98 98 101 103 107 110 112 113 111 107 105 102 102 100 98 96 101 104 112 121 124 123 123
221 216 213 217 220 219 212 202 184 173 166 153 143 134 125 117 113 110 107 104 102 103 108 111 112 116 119 120 119 116 114 112 111 110 108 104 104 113 113 116 123 127 129
218 217 217 219 223 225 219 208 197 184 178 170 163 154 145 138 132 124 116 112 110 111 117 122 125 128 132 132 131 133 131 127 124 121 123 120 117 118 116 119 128 129 131
215 218 223 223 226 230 227 217 210 200 191 186 184 179 170 165 161 154 147 141 136 132 136 140 146 149 152 156 155 155 154 151 144 138 138 138 136 135 129 131 138 139 144
218 220 227 228 229 232 230 224 222 213 203 199 196 193 190 188 186 182 180 180 176 173 173 176 180 180 182 182 181 178 174 173 172 170 167 165 163 158 154 153 153 153 157
224 223 225 225 230 230 226 224 224 219 213 210 207 203 202 201 200 199 202 205 207 211 212 214 220 216 211 206 202 198 193 189 192 196 195 192 186 181 178 178 175 170 170
223 222 223 226 232 229 225 226 224 223 222 222 218 215 214 213 213 214 215 219 226 233 233 232 233 232 226 223 219 216 211 205 206 208 207 207 203 201 200 197 193 186 183
224 225 225 227 230 230 230 228 227 228 228 230 231 228 229 230 226 226 227 228 235 241 240 237 236 234 230 225 223 223 221 219 220 218 216 215 217 217 215 212 207 203 200
227 227 227 228 229 227 228 231 230 232 233 233 237 239 238 237 235 235 235 237 242 243 242 241 237 237 236 232 229 227 228 227 226 225 226 226 226 226 223 219 215 212 211
229 229 228 228 227 229 231 233 235 234 237 238 242 242 244 247 243 242 241 242 245 247 245 245 240 239 238 236 236 234 234 234 233 231 232 232 233 230 229 227 222 218 217
229 229 227 228 228 232 234 234 236 236 242 247 250 249 247 249 249 249 249 247 250 252 251 251 245 242 239 239 242 241 238 238 240 239 238 238 236 236 235 235 230 226 223
231 230 229 232 232 232 232 232 236 239 245 250 253 246 251 252 256 257 258 254 253 255 255 255 251 247 245 244 247 246 242 241 243 244 243 241 238 239 240 240 238 234 229
229 229 229 230 233 231 229 231 239 242 243 249 251 247 250 257 260 261 259 261 261 260 258 257 257 251 247 246 250 251 247 247 245 245 244 243 241 241 243 243 243 240 235
227 228 227 227 229 228 228 234 237 237 240 243 248 249 250 255 257 261 260 261 265 264 264 262 259 255 251 252 256 257 255 250 246 245 245 245 244 245 246 248 248 245 241
227 225 223 225 226 228 231 233 232 235 236 238 245 248 250 258 262 267 266 268 273 274 274 274 266 259 252 254 257 256 255 255 250 247 248 249 250 249 249 250 249 248 246
224 221 221 225 226 226 229 228 231 236 234 235 243 247 249 256 264 265 270 275 274 274 275 276 276 270 263 261 262 262 261 261 257 253 252 253 255 253 251 251 251 248 246
222 220 221 224 225 226 226 227 233 237 236 236 239 243 247 254 263 273 279 280 279 277 279 279 281 277 274 273 274 273 271 267 265 259 258 258 258 255 252 252 252 250 249
216 217 219 222 224 225 225 226 232 235 237 237 241 241 244 255 270 279 278 281 281 281 282 281 284 285 283 283 279 276 276 274 271 266 264 262 259 257 255 254 254 252 252
213 214 217 218 218 217 219 225 228 229 233 234 236 242 250 261 272 279 282 285 283 285 289 289 287 285 285 284 281 281 280 278 276 275 270 265 262 261 260 258 257 255 254
214 213 213 215 213 215 218 221 221 223 223 223 230 236 244 255 268 277 286 289 287 289 290 294 295 291 288 288 287 285 282 281 280 277 274 269 266 265 264 262 259 258 256
216 213 209 207 204 206 210 210 210 208 207 210 217 222 231 240 254 282 295 294 297 306 305 303 303 299 295 292 291 290 287 284 281 279 276 273 270 267 266 264 261 259 258
208 202 204 203 200 199 199 197 196 193 193 200 203 207 212 209 229 255 263 316 345 341 328 320 316 311 306 302 297 293 292 290 287 283 280 278 275 271 268 266 264 261 259
202 199 199 196 190 190 190 189 188 184 185 188 189 194 196 201 220 257 285 309 327 330 327 325 321 318 314 310 305 300 297 294 291 288 285 282 278 274 272 269 266 264 262
196 192 189 186 185 184 184 181 180 180 180 180 181 183 186 199 233 274 276 289 310 320 323 322 318 315 313 311 308 306 303 299 294 290 288 285 282 278 275 272 269 267 264
194 191 188 185 183 180 178 177 177 175 177 177 177 176 177 185 210 265 288 307 315 318 319 319 316 313 311 310 308 306 304 301 299 296 292 288 284 281 278 275 273 270 267
Height
5903 5903 5903 5903 5903 5903 5904 5904 5904 5903 5903 5903 5904 5904 5904 5903 5903 5903 5903 5903 5903 5904 5904 5904 5904 5904 5904 5904 5904 5904 5904 5904 5903 5903 5902 5902 5901 5901 5901 5900 5900 5900 5900
5902 5902 5902 5903 5903 5903 5903 5903 5903 5903 5903 5903 5904 5904 5904 5904 5904 5904 5904 5904 5904 5904 5905 5905 5905 5905 5905 5905 5905 5905 5904 5904 5904 5904 5903 5903 5903 5902 5902 5902 5901 5901 5902
5900 5900 5901 5901 5902 5902 5902 5903 5903 5903 5903 5903 5903 5904 5904 5904 5904 5904 5904 5904 5904 5905 5905 5905 5905 5905 5905 5905 5905 5905 5905 5905 5905 5905 5904 5904 5903 5903 5903 5903 5903 5903 5903
5898 5899 5899 5900 5901 5901 5902 5902 5902 5902 5902 5903 5903 5903 5903 5903 5904 5904 5904 5904 5905 5905 5905 5905 5905 5905 5905 5906 5906 5906 5906 5905 5905 5905 5905 5905 5904 5904 5904 5904 5904 5904 5904
5896 5897 5898 5899 5899 5900 5900 5901 5901 5901 5902 5902 5902 5903 5903 5903 5903 5903 5904 5904 5904 5905 5905 5905 5905 5905 5905 5905 5906 5906 5906 5906 5906 5906 5905 5905 5905 5905 5905 5905 5905 5905 5905
5894 5895 5896 5897 5897 5898 5899 5899 5900 5900 5901 5901 5901 5902 5902 5902 5902 5903 5903 5903 5904 5904 5905 5905 5905 5905 5905 5905 5905 5905 5906 5906 5906 5906 5906 5906 5906 5906 5906 5906 5906 5906 5906
5891 5892 5893 5894 5896 5896 5897 5897 5898 5899 5899 5900 5900 5900 5901 5901 5901 5902 5902 5903 5903 5903 5904 5904 5904 5904 5905 5905 5905 5905 5905 5905 5906 5906 5906 5906 5906 5906 5906 5907 5907 5907 5907
5888 5889 5891 5892 5893 5894 5895 5895 5896 5897 5898 5898 5899 5899 5899 5900 5900 5900 5901 5901 5902 5902 5903 5903 5903 5904 5904 5904 5904 5904 5905 5905 5905 5905 5906 5906 5906 5907 5907 5907 5907 5908 5908
5885 5886 5888 5889 5890 5891 5892 5893 5894 5895 5896 5896 5897 5897 5897 5898 5898 5898 5899 5900 5900 5900 5901 5901 5902 5902 5902 5903 5903 5904 5904 5904 5905 5905 5905 5906 5906 5906 5907 5907 5907 5908 5908
5882 5883 5885 5886 5887 5889 5890 5891 5892 5893 5893 5894 5895 5895 5895 5895 5896 5896 5897 5897 5898 5898 5898 5899 5900 5900 5901 5901 5902 5902 5903 5903 5903 5904 5904 5905 5905 5906 5906 5906 5907 5907 5908
5879 5881 5882 5884 5885 5886 5887 5888 5889 5890 5891 5891 5892 5892 5892 5893 5893 5893 5894 5895 5895 5895 5896 5896 5897 5898 5898 5899 5899 5900 5901 5901 5902 5902 5903 5903 5904 5904 5905 5905 5905 5906 5907
5877 5878 5880 5881 5882 5883 5884 5886 5887 5888 5888 5888 5889 5889 5889 5890 5890 5891 5891 5891 5892 5892 5893 5893 5894 5895 5895 5896 5897 5897 5898 5899 5900 5900 5901 5901 5902 5903 5903 5903 5904 5904 5905
5874 5875 5877 5878 5880 5881 5882 5883 5884 5885 5886 5886 5886 5887 5887 5887 5888 5888 5888 5888 5889 5889 5889 5890 5891 5892 5892 5893 5894 5894 5895 5896 5897 5897 5898 5899 5900 5900 5901 5902 5902 5902 5903
5870 5872 5874 5875 5877 5877 5879 5880 5882 5883 5883 5883 5884 5884 5885 5885 5885 5885 5885 5886 5886 5886 5887 5887 5888 5889 5889 5890 5890 5891 5892 5892 5893 5894 5895 5896 5897 5898 5898 5899 5900 5900 5901
5867 5869 5871 5872 5874 5875 5876 5877 5879 5880 5881 5881 5882 5882 5882 5882 5883 5883 5883 5883 5884 5884 5884 5884 5885 5885 5886 5887 5887 5888 5888 5889 5890 5891 5892 5893 5894 5895 5895 5896 5897 5898 5898
5864 5866 5868 5869 5871 5872 5874 5875 5877 5877 5878 5879 5880 5880 5881 5880 5881 5881 5882 5882 5882 5882 5882 5882 5883 5883 5883 5884 5884 5885 5885 5886 5886 5887 5888 5889 5890 5891 5892 5893 5893 5894 5895
5860 5863 5865 5866 5868 5870 5871 5873 5874 5875 5876 5876 5877 5878 5879 5879 5879 5879 5880 5880 5880 5880 5880 5880 5880 5880 5881 5881 5882 5882 5882 5883 5883 5884 5885 5886 5886 5887 5888 5889 5890 5890 5891
5857 5859 5862 5864 5865 5867 5869 5871 5872 5873 5873 5874 5875 5876 5877 5877 5877 5878 5878 5878 5878 5878 5878 5878 5878 5878 5878 5878 5879 5879 5879 5880 5880 5880 5881 5882 5882 5883 5884 5885 5885 5886 5887
5854 5856 5859 5861 5863 5864 5866 5868 5869 5870 5872 5873 5874 5875 5875 5876 5876 5876 5876 5876 5876 5876 5876 5876 5875 5876 5876 5876 5876 5876 5876 5876 5877 5877 5877 5878 5878 5879 5879 5880 5881 5882 5883
5852 5854 5856 5858 5860 5862 5864 5866 5867 5869 5870 5871 5873 5873 5874 5874 5874 5874 5874 5874 5874 5874 5874 5874 5874 5873 5874 5874 5874 5874 5873 5873 5873 5873 5873 5873 5874 5874 5875 5875 5876 5877 5878
5850 5851 5853 5855 5858 5860 5862 5864 5866 5867 5868 5870 5871 5872 5872 5873 5873 5872 5872 5872 5872 5872 5872 5872 5872 5871 5871 5871 5871 5871 5870 5870 5870 5869 5869 5869 5869 5869 5870 5870 5871 5872 5873
5848 5849 5851 5854 5856 5858 5861 5862 5864 5866 5867 5868 5870 5870 5871 5871 5871 5871 5871 5871 5871 5871 5870 5870 5870 5869 5869 5868 5868 5867 5867 5867 5866 5865 5865 5865 5865 5865 5865 5865 5865 5866 5867
5847 5849 5851 5853 5855 5857 5859 5861 5863 5864 5866 5867 5869 5870 5870 5870 5870 5870 5870 5870 5870 5869 5869 5869 5868 5867 5867 5866 5865 5864 5864 5863 5862 5862 5861 5860 5860 5860 5860 5860 5860 5860 5861
5846 5848 5850 5852 5855 5857 5859 5860 5862 5864 5865 5867 5868 5869 5869 5869 5870 5870 5870 5869 5869 5869 5868 5867 5867 5865 5865 5863 5862 5861 5860 5859 5858 5858 5857 5856 5855 5855 5854 5854 5854 5854 5854
5846 5848 5850 5852 5854 5856 5858 5860 5862 5863 5865 5866 5867 5868 5868 5868 5869 5869 5869 5869 5868 5868 5867 5866 5865 5864 5862 5861 5860 5858 5857 5855 5854 5853 5852 5851 5850 5849 5849 5848 5848 5848 5848
5846 5848 5850 5852 5854 5856 5858 5860 5861 5863 5864 5865 5866 5867 5867 5868 5868 5868 5868 5867 5867 5866 5865 5864 5862 5861 5860 5858 5857 5855 5854 5852 5850 5849 5847 5846 5844 5844 5843 5842 5841 5841 5841